CCA1535 ZWWW-ZLXN

Flight info

Callsign CCA1535
Flight time 2h 18m
Altitude 31100
Route VARMI A368 FKG W192 LUPRO V116 ESDEX W191 DNC GOVSU W111 UPVOP
Aircraft A339/H-SADE1E2E3GHIJ1J3J5M1P2RWXY/LB1

Departure

Time 2026-05-04 05:19
Airport Ürümqi Tianshan International Airport (ZWWW)

Arrival

Time 2026-05-04 07:38
Airport Xining Caojiabao International Airport (ZLXN)
Time Latitude Longitude Altitude Speed Heading
2026-05-04 04:57 43.92219 87.48530 2149 ft 0 kts 162°
2026-05-04 05:09 43.92281 87.48502 2149 ft 2 kts 142°
2026-05-04 05:09 43.92291 87.48487 2149 ft 2 kts 117°
2026-05-04 05:10 43.92296 87.48467 2149 ft 2 kts 94°
2026-05-04 05:10 43.92295 87.48450 2149 ft 0 kts 74°
2026-05-04 05:10 43.92294 87.48443 2149 ft 0 kts 73°
2026-05-04 05:12 43.92294 87.48444 2149 ft 0 kts 73°
2026-05-04 05:13 43.92296 87.48454 2149 ft 2 kts 73°
2026-05-04 05:13 43.92302 87.48483 2149 ft 3 kts 73°
2026-05-04 05:13 43.92311 87.48529 2149 ft 5 kts 73°
2026-05-04 05:13 43.92330 87.48573 2149 ft 5 kts 33°
2026-05-04 05:14 43.92374 87.48571 2148 ft 7 kts 343°
2026-05-04 05:14 43.92429 87.48548 2148 ft 8 kts 343°
2026-05-04 05:14 43.92462 87.48537 2148 ft 2 kts
2026-05-04 05:14 43.92484 87.48554 2148 ft 4 kts 43°
2026-05-04 05:15 43.92502 87.48599 2148 ft 6 kts 73°
2026-05-04 05:15 43.92516 87.48664 2148 ft 7 kts 73°
2026-05-04 05:15 43.92533 87.48744 2148 ft 9 kts 73°
2026-05-04 05:15 43.92553 87.48838 2148 ft 11 kts 73°
2026-05-04 05:16 43.92577 87.48949 2148 ft 12 kts 73°
2026-05-04 05:16 43.92603 87.49069 2148 ft 13 kts 73°
2026-05-04 05:16 43.92629 87.49194 2148 ft 13 kts 73°
2026-05-04 05:16 43.92657 87.49326 2148 ft 14 kts 73°
2026-05-04 05:17 43.92677 87.49406 2148 ft 5 kts 54°
2026-05-04 05:17 43.92714 87.49426 2148 ft 6 kts 358°
2026-05-04 05:17 43.92765 87.49411 2148 ft 8 kts 344°
2026-05-04 05:17 43.92813 87.49387 2147 ft 3 kts 331°
2026-05-04 05:18 43.92834 87.49354 2147 ft 4 kts 295°
2026-05-04 05:18 43.92834 87.49309 2147 ft 5 kts 258°
2026-05-04 05:18 43.92820 87.49246 2147 ft 11 kts 252°
2026-05-04 05:18 43.92732 87.48843 2148 ft 76 kts 253°
2026-05-04 05:19 43.92524 87.47863 2148 ft 133 kts 253°
2026-05-04 05:19 43.92216 87.46422 2252 ft 169 kts 255°
2026-05-04 05:19 43.91887 87.44872 2846 ft 164 kts 255°
2026-05-04 05:19 43.91566 87.43393 3471 ft 161 kts 255°
2026-05-04 05:20 43.91246 87.41914 4035 ft 157 kts 255°
2026-05-04 05:20 43.90935 87.40478 4460 ft 156 kts 255°
2026-05-04 05:20 43.90625 87.39034 4859 ft 157 kts 255°
2026-05-04 05:20 43.90315 87.37584 5259 ft 159 kts 256°
2026-05-04 05:21 43.89992 87.36070 5536 ft 171 kts 255°
2026-05-04 05:21 43.89639 87.34417 5812 ft 185 kts 255°
2026-05-04 05:21 43.89254 87.32626 6098 ft 201 kts 255°
2026-05-04 05:21 43.88842 87.30708 6392 ft 218 kts 255°
2026-05-04 05:22 43.88385 87.28586 6723 ft 236 kts 256°
2026-05-04 05:22 43.88216 87.26289 7066 ft 251 kts 282°
2026-05-04 05:22 43.88913 87.24027 7622 ft 257 kts 310°
2026-05-04 05:22 43.90282 87.22506 8375 ft 258 kts 337°
2026-05-04 05:23 43.91988 87.21731 9117 ft 259 kts 344°
2026-05-04 05:23 43.93727 87.21039 9877 ft 262 kts 344°
2026-05-04 05:23 43.95475 87.20339 10666 ft 265 kts 343°
2026-05-04 05:23 43.97249 87.19618 11437 ft 267 kts 343°
2026-05-04 05:24 43.99032 87.18883 12167 ft 271 kts 342°
2026-05-04 05:24 44.00856 87.18127 12831 ft 278 kts 342°
2026-05-04 05:24 44.02779 87.17327 13240 ft 295 kts 342°
2026-05-04 05:24 44.04778 87.16492 13610 ft 313 kts 342°
2026-05-04 05:25 44.06915 87.15599 14162 ft 324 kts 342°
2026-05-04 05:25 44.09096 87.14691 14920 ft 328 kts 341°
2026-05-04 05:25 44.11294 87.13799 15697 ft 332 kts 345°
2026-05-04 05:25 44.13622 87.13664 16392 ft 342 kts
2026-05-04 05:26 44.15843 87.14849 17065 ft 353 kts 31°
2026-05-04 05:26 44.17619 87.17214 17726 ft 364 kts 54°
2026-05-04 05:26 44.18741 87.20402 18436 ft 370 kts 66°
2026-05-04 05:26 44.19743 87.23763 19148 ft 375 kts 66°
2026-05-04 05:27 44.20748 87.27113 19813 ft 380 kts 65°
2026-05-04 05:28 44.28277 87.51688 24211 ft 410 kts 65°
2026-05-04 05:29 44.29402 87.55363 24767 ft 414 kts 65°
2026-05-04 05:29 44.30545 87.59103 25289 ft 419 kts 65°
2026-05-04 05:29 44.31679 87.62852 25779 ft 424 kts 66°
2026-05-04 05:29 44.32343 87.66863 26202 ft 431 kts 89°
2026-05-04 05:31 44.21392 87.90804 30209 ft 423 kts 131°
2026-05-04 05:31 44.19623 87.94080 30724 ft 423 kts 131°
2026-05-04 05:32 44.17887 87.97346 31149 ft 426 kts 129°
2026-05-04 05:32 44.16225 88.00847 31384 ft 435 kts 125°
2026-05-04 05:32 44.14661 88.04469 31680 ft 441 kts 124°
2026-05-04 05:33 44.11522 88.11855 32649 ft 441 kts 124°
2026-05-04 05:33 44.09972 88.15492 33127 ft 441 kts 124°
2026-05-04 05:33 44.08413 88.19142 33584 ft 441 kts 124°
2026-05-04 05:33 44.06841 88.22810 33943 ft 443 kts 125°
2026-05-04 05:34 44.05259 88.26488 34244 ft 445 kts 125°
2026-05-04 05:34 44.03651 88.30219 34542 ft 448 kts 125°
2026-05-04 05:34 44.02068 88.33890 34855 ft 449 kts 125°
2026-05-04 05:34 44.00459 88.37616 35105 ft 452 kts 124°
2026-05-04 05:35 43.98824 88.41399 35136 ft 453 kts 125°
2026-05-04 05:35 43.95599 88.48850 35146 ft 454 kts 124°
2026-05-04 05:36 43.92341 88.56358 35142 ft 454 kts 125°
2026-05-04 05:36 43.89085 88.63836 35151 ft 454 kts 124°
2026-05-04 05:37 43.85829 88.71300 35160 ft 454 kts 125°
2026-05-04 05:37 43.82562 88.78767 35175 ft 454 kts 126°
2026-05-04 05:38 43.77638 88.89992 35168 ft 455 kts 125°
2026-05-04 05:38 43.74362 88.97431 35162 ft 455 kts 125°
2026-05-04 05:39 43.69422 89.08611 35147 ft 456 kts 125°
2026-05-04 05:40 43.64462 89.19800 35141 ft 456 kts 125°
2026-05-04 05:40 43.61136 89.27281 35161 ft 457 kts 125°
2026-05-04 05:41 43.57818 89.34729 35167 ft 457 kts 125°
2026-05-04 05:41 43.54494 89.42194 35167 ft 458 kts 124°
2026-05-04 05:42 43.51218 89.49723 35172 ft 458 kts 124°
2026-05-04 05:42 43.47958 89.57216 35166 ft 458 kts 124°
2026-05-04 05:43 43.44666 89.64737 35167 ft 459 kts 124°
2026-05-04 05:45 43.31451 89.94758 35144 ft 461 kts 124°
2026-05-04 05:47 43.18113 90.24737 35069 ft 462 kts 124°
2026-05-04 05:47 43.14772 90.32196 35038 ft 462 kts 124°
2026-05-04 05:48 43.11398 90.39709 35025 ft 462 kts 124°
2026-05-04 05:48 43.08028 90.47200 35006 ft 462 kts 124°
2026-05-04 05:49 43.04655 90.54687 34973 ft 463 kts 124°
2026-05-04 05:49 43.01300 90.62108 34934 ft 463 kts 124°
2026-05-04 05:51 42.88876 90.87597 34884 ft 457 kts 139°
2026-05-04 05:51 42.86554 90.90540 34872 ft 453 kts 146°
2026-05-04 05:52 42.81390 90.95327 34875 ft 446 kts 156°
2026-05-04 05:52 42.75983 90.99458 34855 ft 446 kts 156°
2026-05-04 05:54 42.54417 91.16022 34925 ft 446 kts 156°
2026-05-04 05:55 42.48973 91.20202 34945 ft 447 kts 156°
2026-05-04 05:55 42.43472 91.24408 34977 ft 465 kts 155°
2026-05-04 05:56 42.40610 91.26592 34979 ft 476 kts 155°
2026-05-04 05:56 42.37677 91.28831 34982 ft 486 kts 155°
2026-05-04 05:56 42.31743 91.33365 34997 ft 495 kts 155°
2026-05-04 05:57 42.25746 91.37942 35006 ft 496 kts 155°
2026-05-04 05:57 42.19742 91.42509 35019 ft 494 kts 155°
2026-05-04 05:58 42.13738 91.47061 35027 ft 496 kts 155°
2026-05-04 05:58 42.07715 91.51624 35030 ft 495 kts 155°
2026-05-04 05:59 42.01727 91.56142 35035 ft 497 kts 155°
2026-05-04 05:59 41.95698 91.60686 35036 ft 496 kts 155°
2026-05-04 06:00 41.89690 91.65207 35040 ft 496 kts 156°
2026-05-04 06:00 41.83669 91.69724 35041 ft 496 kts 156°
2026-05-04 06:01 41.77647 91.74236 35048 ft 496 kts 155°
2026-05-04 06:03 41.58622 91.94029 35033 ft 507 kts 127°
2026-05-04 06:03 41.56641 91.97965 35030 ft 508 kts 124°
2026-05-04 06:05 41.43366 92.25708 34449 ft 502 kts 123°
2026-05-04 06:05 41.39581 92.33501 34161 ft 502 kts 123°
2026-05-04 06:05 41.37684 92.37396 34018 ft 503 kts 124°
2026-05-04 06:06 41.35784 92.41300 33876 ft 503 kts 123°
2026-05-04 06:06 41.33878 92.45207 33723 ft 503 kts 123°
2026-05-04 06:06 41.31957 92.49134 33564 ft 504 kts 123°
2026-05-04 06:06 41.30053 92.53029 33412 ft 504 kts 123°
2026-05-04 06:07 41.28145 92.56928 33255 ft 503 kts 123°
2026-05-04 06:07 41.26250 92.60795 33098 ft 502 kts 123°
2026-05-04 06:07 41.24339 92.64688 33056 ft 502 kts 123°
2026-05-04 06:08 41.20511 92.72466 33051 ft 503 kts 124°
2026-05-04 06:08 41.16688 92.80221 33061 ft 503 kts 124°
2026-05-04 06:09 41.12859 92.87967 33070 ft 503 kts 124°
2026-05-04 06:11 40.97288 93.19262 33073 ft 509 kts 123°
2026-05-04 06:13 40.81639 93.50417 33065 ft 509 kts 123°
2026-05-04 06:14 40.66942 93.76681 33062 ft 508 kts 129°
2026-05-04 06:15 40.62516 93.83987 33062 ft 509 kts 129°
2026-05-04 06:15 40.58134 93.91218 33057 ft 508 kts 129°
2026-05-04 06:16 40.53730 93.98475 33046 ft 508 kts 129°
2026-05-04 06:16 40.49318 94.05724 33037 ft 508 kts 129°
2026-05-04 06:17 40.44903 94.12966 33029 ft 508 kts 129°
2026-05-04 06:17 40.40490 94.20185 33025 ft 508 kts 129°
2026-05-04 06:18 40.36069 94.27401 33025 ft 508 kts 128°
2026-05-04 06:20 40.18326 94.56209 33042 ft 509 kts 128°
2026-05-04 06:21 40.08036 94.75008 33078 ft 508 kts 116°
2026-05-04 06:22 40.04922 94.83253 33091 ft 507 kts 114°
2026-05-04 06:25 39.83125 95.40974 33282 ft 506 kts 114°
2026-05-04 06:26 39.79999 95.49157 33342 ft 507 kts 114°
2026-05-04 06:26 39.76856 95.57358 33348 ft 507 kts 114°
2026-05-04 06:27 39.68972 95.77837 33371 ft 506 kts 114°
2026-05-04 06:28 39.65824 95.85974 33357 ft 505 kts 114°
2026-05-04 06:28 39.62673 95.94106 33395 ft 505 kts 114°
2026-05-04 06:29 39.59516 96.02235 33372 ft 505 kts 114°
2026-05-04 06:29 39.56337 96.10384 33388 ft 505 kts 114°
2026-05-04 06:30 39.53149 96.18481 33430 ft 505 kts 114°
2026-05-04 06:30 39.49942 96.26585 33448 ft 505 kts 114°
2026-05-04 06:31 39.46749 96.34653 33440 ft 504 kts 114°
2026-05-04 06:31 39.43545 96.42723 33455 ft 503 kts 114°
2026-05-04 06:33 39.30729 96.74831 33492 ft 503 kts 114°
2026-05-04 06:34 39.27520 96.82814 33525 ft 502 kts 114°
2026-05-04 06:34 39.24327 96.90815 33539 ft 502 kts 114°
2026-05-04 06:36 39.11664 97.22726 33587 ft 501 kts 114°
2026-05-04 06:37 39.08490 97.30669 33572 ft 499 kts 114°
2026-05-04 06:37 39.05306 97.38612 33587 ft 500 kts 114°
2026-05-04 06:38 39.02119 97.46548 33600 ft 499 kts 114°
2026-05-04 06:40 38.89382 97.78015 33596 ft 497 kts 114°
2026-05-04 06:40 38.86172 97.85877 33596 ft 497 kts 114°
2026-05-04 06:41 38.82952 97.93752 33614 ft 496 kts 114°
2026-05-04 06:41 38.79766 98.01525 33632 ft 495 kts 114°
2026-05-04 06:42 38.76557 98.09338 33623 ft 495 kts 114°
2026-05-04 06:44 38.63706 98.40422 33635 ft 493 kts 114°
2026-05-04 06:44 38.60496 98.48143 33640 ft 493 kts 115°
2026-05-04 06:45 38.57276 98.55862 33651 ft 492 kts 114°
2026-05-04 06:45 38.54067 98.63542 33612 ft 492 kts 114°
2026-05-04 06:46 38.50828 98.71270 33598 ft 492 kts 115°
2026-05-04 06:46 38.47610 98.78930 33600 ft 491 kts 115°
2026-05-04 06:48 38.34692 99.09493 33625 ft 490 kts 115°
2026-05-04 06:50 38.21692 99.39953 33586 ft 490 kts 115°
2026-05-04 06:51 38.18424 99.47568 33570 ft 490 kts 115°
2026-05-04 06:51 38.15147 99.55180 33566 ft 490 kts 115°
2026-05-04 06:52 38.11885 99.62741 33569 ft 490 kts 115°
2026-05-04 06:52 38.08617 99.70299 33568 ft 490 kts 116°
2026-05-04 06:53 38.05334 99.77875 33608 ft 490 kts 116°
2026-05-04 06:53 38.02025 99.85491 33617 ft 490 kts 116°
2026-05-04 06:54 37.98742 99.93027 33619 ft 490 kts 116°
2026-05-04 06:54 37.95451 100.00565 33619 ft 490 kts 116°
2026-05-04 06:55 37.92143 100.08128 33610 ft 490 kts 116°
2026-05-04 06:55 37.88835 100.15673 33593 ft 490 kts 116°
2026-05-04 06:57 37.75576 100.45733 33580 ft 489 kts 116°
2026-05-04 06:58 37.72255 100.53223 33581 ft 489 kts 116°
2026-05-04 06:58 37.68932 100.60707 33571 ft 489 kts 117°
2026-05-04 06:59 37.65593 100.68196 33559 ft 488 kts 117°
2026-05-04 06:59 37.62397 100.75704 33555 ft 488 kts 116°
2026-05-04 07:01 37.49683 101.05881 33516 ft 488 kts 116°
2026-05-04 07:02 37.46475 101.13435 33528 ft 487 kts 116°
2026-05-04 07:02 37.43292 101.20910 33545 ft 487 kts 116°
2026-05-04 07:03 37.40077 101.28444 33526 ft 486 kts 116°
2026-05-04 07:03 37.36892 101.35898 33507 ft 486 kts 117°
2026-05-04 07:04 37.33673 101.43402 33509 ft 485 kts 117°
2026-05-04 07:04 37.30639 101.50938 33502 ft 484 kts 112°
2026-05-04 07:05 37.28281 101.58807 33294 ft 479 kts 105°
2026-05-04 07:05 37.27346 101.62826 33105 ft 477 kts 103°
2026-05-04 07:05 37.26438 101.66859 32894 ft 477 kts 104°
2026-05-04 07:06 37.24628 101.74884 32468 ft 477 kts 104°
2026-05-04 07:06 37.23718 101.78877 32247 ft 477 kts 104°
2026-05-04 07:06 37.22806 101.82862 32032 ft 477 kts 104°
2026-05-04 07:07 37.21887 101.86859 31813 ft 477 kts 105°
2026-05-04 07:08 37.15370 102.14957 30242 ft 475 kts 105°
2026-05-04 07:09 37.14455 102.18873 30024 ft 465 kts 105°
2026-05-04 07:09 37.13564 102.22684 29797 ft 455 kts 105°
2026-05-04 07:09 37.12681 102.26451 29564 ft 446 kts 105°
2026-05-04 07:09 37.11682 102.30091 29460 ft 435 kts 111°
2026-05-04 07:10 37.10446 102.33474 29439 ft 422 kts 116°
2026-05-04 07:12 36.98090 102.58393 29418 ft 420 kts 121°
2026-05-04 07:12 36.95004 102.64552 29424 ft 420 kts 121°
2026-05-04 07:13 36.91893 102.70751 29416 ft 420 kts 122°
2026-05-04 07:13 36.88798 102.76911 29398 ft 419 kts 122°
2026-05-04 07:14 36.82572 102.89275 29062 ft 420 kts 121°
2026-05-04 07:14 36.81118 102.92459 28809 ft 420 kts 117°
2026-05-04 07:15 36.79824 102.95710 28555 ft 419 kts 115°
2026-05-04 07:15 36.78549 102.99011 28296 ft 417 kts 115°
2026-05-04 07:15 36.77300 103.02261 28039 ft 416 kts 115°
2026-05-04 07:15 36.76048 103.05508 27787 ft 414 kts 115°
2026-05-04 07:16 36.74806 103.08723 27531 ft 412 kts 115°
2026-05-04 07:16 36.73559 103.11943 27268 ft 409 kts 115°
2026-05-04 07:16 36.72331 103.15111 27017 ft 403 kts 115°
2026-05-04 07:16 36.71108 103.18259 26756 ft 396 kts 115°
2026-05-04 07:17 36.69918 103.21322 26501 ft 390 kts 115°
2026-05-04 07:17 36.68752 103.24316 26247 ft 385 kts 115°
2026-05-04 07:17 36.67577 103.27333 25994 ft 384 kts 115°
2026-05-04 07:17 36.66417 103.30307 25741 ft 383 kts 115°
2026-05-04 07:18 36.65253 103.33290 25485 ft 382 kts 115°
2026-05-04 07:18 36.64087 103.36272 25231 ft 381 kts 116°
2026-05-04 07:18 36.62598 103.38979 24956 ft 378 kts 137°
2026-05-04 07:18 36.60397 103.40668 24694 ft 373 kts 162°
2026-05-04 07:19 36.57873 103.41521 24430 ft 372 kts 169°
2026-05-04 07:19 36.55362 103.42222 24163 ft 370 kts 168°
2026-05-04 07:19 36.52855 103.42998 23889 ft 369 kts 166°
2026-05-04 07:19 36.50361 103.43866 23618 ft 368 kts 165°
2026-05-04 07:20 36.47929 103.44772 23351 ft 367 kts 164°
2026-05-04 07:20 36.45487 103.45704 23077 ft 365 kts 164°
2026-05-04 07:20 36.43020 103.46441 22788 ft 361 kts 178°
2026-05-04 07:20 36.40541 103.46099 22719 ft 355 kts 200°
2026-05-04 07:22 36.36517 103.28802 20918 ft 327 kts 282°
2026-05-04 07:22 36.36958 103.26021 20535 ft 328 kts 282°
2026-05-04 07:23 36.37389 103.23251 20116 ft 328 kts 282°
2026-05-04 07:23 36.37816 103.20486 19704 ft 328 kts 282°
2026-05-04 07:23 36.38248 103.17673 19281 ft 328 kts 282°
2026-05-04 07:23 36.38668 103.14924 18839 ft 329 kts 281°
2026-05-04 07:24 36.39093 103.12125 18353 ft 331 kts 282°
2026-05-04 07:24 36.39524 103.09291 17979 ft 329 kts 281°
2026-05-04 07:24 36.39937 103.06552 17914 ft 318 kts 281°
2026-05-04 07:24 36.40337 103.03902 17911 ft 305 kts 281°
2026-05-04 07:25 36.40723 103.01333 17739 ft 299 kts 282°
2026-05-04 07:26 36.43280 102.84188 16290 ft 284 kts 280°
2026-05-04 07:27 36.43595 102.81763 16072 ft 283 kts 280°
2026-05-04 07:27 36.43912 102.79372 15859 ft 281 kts 283°
2026-05-04 07:27 36.44484 102.77065 15633 ft 280 kts 293°
2026-05-04 07:27 36.45401 102.74918 15344 ft 280 kts 303°
2026-05-04 07:28 36.46538 102.72957 15100 ft 277 kts 306°
2026-05-04 07:28 36.47689 102.71072 15072 ft 267 kts 307°
2026-05-04 07:28 36.48792 102.69269 15073 ft 255 kts 307°
2026-05-04 07:28 36.49838 102.67554 15074 ft 245 kts 306°
2026-05-04 07:29 36.50874 102.65846 15083 ft 246 kts 306°
2026-05-04 07:29 36.51739 102.64016 15079 ft 245 kts 286°
2026-05-04 07:29 36.51846 102.61938 15070 ft 246 kts 260°
2026-05-04 07:29 36.51223 102.59909 14770 ft 252 kts 245°
2026-05-04 07:30 36.50409 102.57947 14408 ft 257 kts 245°
2026-05-04 07:30 36.49582 102.55969 14059 ft 261 kts 245°
2026-05-04 07:30 36.48739 102.53928 13710 ft 265 kts 245°
2026-05-04 07:30 36.47906 102.51894 13366 ft 269 kts 245°
2026-05-04 07:31 36.47054 102.49805 13119 ft 268 kts 245°
2026-05-04 07:31 36.46223 102.47784 13093 ft 257 kts 245°
2026-05-04 07:33 36.44661 102.34002 11556 ft 233 kts 291°
2026-05-04 07:33 36.45243 102.32123 11271 ft 232 kts 290°
2026-05-04 07:33 36.45793 102.30229 10968 ft 230 kts 289°
2026-05-04 07:33 36.46310 102.28371 10668 ft 228 kts 289°
2026-05-04 07:34 36.46807 102.26545 10377 ft 217 kts 289°
2026-05-04 07:34 36.47277 102.24812 10097 ft 208 kts 289°
2026-05-04 07:34 36.47733 102.23135 9843 ft 199 kts 289°
2026-05-04 07:34 36.48169 102.21534 9592 ft 192 kts 289°
2026-05-04 07:35 36.48595 102.19981 9352 ft 184 kts 290°
2026-05-04 07:35 36.49002 102.18499 9128 ft 176 kts 290°
2026-05-04 07:35 36.49392 102.17084 8911 ft 169 kts 290°
2026-05-04 07:35 36.49765 102.15733 8703 ft 162 kts 290°
2026-05-04 07:36 36.50127 102.14420 8510 ft 158 kts 290°
2026-05-04 07:36 36.50488 102.13116 8328 ft 159 kts 290°
2026-05-04 07:38 36.52950 102.04250 7223 ft 95 kts 289°
2026-05-04 07:38 36.53091 102.03743 7224 ft 37 kts 289°
2026-05-04 07:38 36.53171 102.03457 7224 ft 30 kts 289°
2026-05-04 07:38 36.53208 102.03282 7224 ft 19 kts 275°
2026-05-04 07:39 36.53197 102.03136 7225 ft 13 kts 259°
2026-05-04 07:39 36.53185 102.03052 7224 ft 3 kts 257°
2026-05-04 07:39 36.53171 102.03029 7224 ft 3 kts 220°
2026-05-04 07:39 36.53146 102.03015 7224 ft 3 kts 196°
2026-05-04 07:40 36.53125 102.03022 7224 ft 3 kts 141°
2026-05-04 07:40 36.53110 102.03052 7224 ft 4 kts 112°
2026-05-04 07:40 36.53097 102.03096 7224 ft 6 kts 109°
2026-05-04 07:40 36.53078 102.03164 7224 ft 9 kts 109°
2026-05-04 07:41 36.53053 102.03252 7224 ft 12 kts 109°
2026-05-04 07:41 36.53024 102.03360 7223 ft 14 kts 108°
2026-05-04 07:41 36.52990 102.03481 7223 ft 15 kts 109°
2026-05-04 07:41 36.52952 102.03618 7223 ft 17 kts 109°
2026-05-04 07:42 36.52912 102.03762 7223 ft 17 kts 109°
2026-05-04 07:42 36.52871 102.03909 7222 ft 17 kts 109°
2026-05-04 07:42 36.52832 102.04051 7222 ft 17 kts 109°
2026-05-04 07:42 36.52793 102.04192 7222 ft 16 kts 109°
2026-05-04 07:43 36.52755 102.04327 7221 ft 16 kts 109°
2026-05-04 07:43 36.52719 102.04456 7221 ft 15 kts 109°
2026-05-04 07:43 36.52684 102.04582 7221 ft 15 kts 109°
2026-05-04 07:43 36.52649 102.04710 7221 ft 15 kts 109°
2026-05-04 07:44 36.52613 102.04838 7220 ft 15 kts 109°
2026-05-04 07:44 36.52577 102.04968 7220 ft 15 kts 109°
2026-05-04 07:44 36.52541 102.05096 7220 ft 15 kts 109°
2026-05-04 07:44 36.52507 102.05222 7219 ft 14 kts 109°
2026-05-04 07:45 36.52478 102.05325 7219 ft 8 kts 109°
2026-05-04 07:45 36.52458 102.05396 7219 ft 8 kts 109°
2026-05-04 07:45 36.52444 102.05446 7219 ft 2 kts 109°
2026-05-04 07:45 36.52434 102.05457 7219 ft 2 kts 161°
2026-05-04 07:46 36.52416 102.05457 7219 ft 3 kts 186°
2026-05-04 07:46 36.52391 102.05448 7219 ft 4 kts 198°
2026-05-04 07:46 36.52360 102.05435 7218 ft 5 kts 198°
2026-05-04 07:46 36.52334 102.05424 7218 ft 2 kts 211°
2026-05-04 07:47 36.52321 102.05399 7218 ft 4 kts 251°
2026-05-04 07:47 36.52316 102.05366 7218 ft 3 kts 263°
2026-05-04 07:47 36.52315 102.05338 7218 ft 3 kts 266°
2026-05-04 07:49 36.52307 102.05200 7218 ft 0 kts 266°
2026-05-04 07:49 36.52307 102.05197 7218 ft 0 kts 266°